Date String (YYYY-MM-DD hh:mm:ss) UTC,Instrument flags,absolute air pressure of the measurement (hPa),sample flow rate (lpm),inlet stack bypass flow (lpm),air temperature of the measurement (°C),ambient temperature measured by the external sensor (°C),aerosol sample conditioner tube jacket temperature (°C),OPC LED temperature (°C),internal box temperature (°C),relative humidity of the measurement (%),span deviation,mass concentration of particles derived from Lorenz-Mie calculation of OPC scattering (μg/m³),mass concentration of particles derived from Lorenz-Mie calculation of OPC scattering (μg/m³),mass concentration of particles derived from Lorenz-Mie calculation of OPC scattering (μg/m³)
DateTimeUTC,F1_M11,P_M11,Q1_M11,Q2_M11,T1_M11,T2_M11,T3_M11,T4_M11,T5_M11,U1_M11,ZSPAN_M11,X2_M11,X0_M11,X1_M11
2023-10-22 03:00:00,SystemResetWarning,0827.5,5.01,000.00,028.5,027.4,000.0,036.9,030.3,11.5,0000.0,0004.03,0018.88,0002.31
2023-10-22 03:01:00,SystemResetWarning,0827.6,5.00,000.00,028.5,027.4,000.0,036.9,030.3,11.4,0000.0,0004.02,0018.56,0002.32
2023-10-22 03:02:00,SystemResetWarning,0827.6,5.00,000.00,028.6,027.5,000.0,036.9,030.3,11.4,0000.0,0004.01,0017.31,0002.32
2023-10-22 03:03:00,SystemResetWarning,0827.6,5.00,000.00,028.6,027.5,000.0,036.9,030.4,11.4,0000.0,0003.99,0016.95,0002.32
2023-10-22 03:04:00,SystemResetWarning,0827.6,4.98,000.00,028.6,026.4,000.0,036.9,030.4,11.4,0000.0,0003.99,0016.65,0002.33
2023-10-22 03:05:00,SystemResetWarning,0827.5,5.01,000.00,028.5,024.8,000.0,036.8,030.2,11.4,0000.0,0004.04,0016.57,0002.33
2023-10-22 03:06:00,SystemResetWarning,0827.5,5.01,000.00,028.5,024.5,000.0,036.8,030.0,11.4,0000.0,0004.04,0014.87,0002.35
2023-10-22 03:07:00,SystemResetWarning,0827.5,4.99,000.00,028.3,024.7,000.0,036.8,029.8,11.5,0000.0,0004.04,0014.57,0002.35
2023-10-22 03:08:00,SystemResetWarning,0827.6,5.00,000.00,028.3,025.1,000.0,036.8,029.8,11.5,0000.0,0004.06,0014.54,0002.36
2023-10-22 03:09:00,SystemResetWarning,0827.6,5.00,000.00,028.3,025.4,000.0,036.8,029.9,11.5,0000.0,0004.07,0014.85,0002.36
2023-10-22 03:10:00,SystemResetWarning,0827.7,5.01,000.00,028.3,025.8,000.0,036.8,029.9,11.5,0000.0,0004.06,0014.11,0002.40
2023-10-22 03:11:00,SystemResetWarning,0827.7,4.99,000.00,028.3,026.1,000.0,036.8,030.0,11.5,0000.0,0004.09,0013.82,0002.45
2023-10-22 03:12:00,SystemResetWarning,0827.7,5.00,000.00,028.3,026.4,000.0,036.8,030.0,11.5,0000.0,0004.15,0014.19,0002.46
2023-10-22 03:13:00,SystemResetWarning,0827.7,5.00,000.00,028.3,026.6,000.0,036.8,030.0,11.5,0000.0,0004.14,0014.66,0002.49
2023-10-22 03:14:00,SystemResetWarning,0827.7,5.00,000.00,028.3,026.8,000.0,036.8,030.1,11.5,0000.0,0004.14,0015.84,0002.52
2023-10-22 03:15:00,SystemResetWarning,0827.8,4.99,000.00,028.4,026.9,000.0,036.8,030.1,11.4,0000.0,0004.10,0016.34,0002.53
2023-10-22 03:16:00,SystemResetWarning,0827.8,5.00,000.00,028.4,027.1,000.0,036.8,030.1,11.5,0000.0,0004.11,0018.37,0002.56
2023-10-22 03:17:00,SystemResetWarning,0827.8,4.99,000.00,028.4,027.2,000.0,036.8,030.2,11.5,0000.0,0004.13,0019.99,0002.56
2023-10-22 03:18:00,SystemResetWarning,0827.8,5.00,000.00,028.5,027.3,000.0,036.8,030.2,11.5,0000.0,0004.12,0020.43,0002.57
2023-10-22 03:19:00,SystemResetWarning,0827.8,5.01,000.00,028.5,027.4,000.0,036.9,030.2,11.4,0000.0,0004.12,0020.97,0002.58
2023-10-22 03:20:00,SystemResetWarning,0827.8,5.01,000.00,028.5,027.5,000.0,036.9,030.3,11.4,0000.0,0004.06,0020.02,0002.59
2023-10-22 03:21:00,SystemResetWarning,0827.8,5.01,000.00,028.6,027.5,000.0,036.9,030.3,11.4,0000.0,0004.06,0019.85,0002.58
2023-10-22 03:22:00,SystemResetWarning,0827.8,5.00,000.00,028.6,027.6,000.0,036.9,030.4,11.5,0000.0,0004.02,0020.07,0002.54
2023-10-22 03:23:00,SystemResetWarning,0827.7,4.98,000.00,028.7,027.5,000.0,036.9,030.4,11.5,0000.0,0003.90,0020.32,0002.53
2023-10-22 03:24:00,SystemResetWarning,0827.7,5.00,000.00,028.6,025.9,000.0,036.9,030.3,11.5,0000.0,0003.89,0019.70,0002.51
2023-10-22 03:25:00,SystemResetWarning,0827.7,5.00,000.00,028.6,024.7,000.0,036.9,030.2,11.5,0000.0,0003.88,0019.00,0002.49
2023-10-22 03:26:00,SystemResetWarning,0827.7,5.01,000.00,028.5,024.6,000.0,036.8,030.0,11.6,0000.0,0003.91,0018.14,0002.47
2023-10-22 03:27:00,SystemResetWarning,0827.7,5.01,000.00,028.4,024.9,000.0,036.8,029.8,11.7,0000.0,0003.87,0016.21,0002.47
2023-10-22 03:28:00,SystemResetWarning,0827.6,4.99,000.00,028.3,025.3,000.0,036.8,029.8,11.7,0000.0,0003.85,0014.45,0002.47
2023-10-22 03:29:00,SystemResetWarning,0827.6,5.01,000.00,028.3,025.6,000.0,036.9,029.9,11.8,0000.0,0003.84,0014.38,0002.45
2023-10-22 03:30:00,SystemResetWarning,0827.5,4.99,000.00,028.3,026.0,000.0,036.8,029.9,11.7,0000.0,0003.82,0013.55,0002.43
2023-10-22 03:31:00,SystemResetWarning,0827.5,4.99,000.00,028.3,026.3,000.0,036.8,030.0,11.7,0000.0,0003.83,0013.20,0002.43
2023-10-22 03:32:00,SystemResetWarning,0827.5,5.00,000.00,028.3,026.5,000.0,036.8,030.0,11.6,0000.0,0003.85,0013.87,0002.43
2023-10-22 03:33:00,SystemResetWarning,0827.8,5.00,000.00,028.4,026.7,000.0,036.8,030.1,11.6,0000.0,0003.86,0014.04,0002.45
2023-10-22 03:34:00,SystemResetWarning,0827.4,5.00,000.00,028.4,026.9,000.0,036.8,030.1,11.6,0000.0,0003.91,0013.12,0002.45
2023-10-22 03:35:00,SystemResetWarning,0827.4,5.00,000.00,028.4,027.0,000.0,036.9,030.1,11.6,0000.0,0003.92,0013.36,0002.46
2023-10-22 03:36:00,SystemResetWarning,0827.4,5.01,000.00,028.5,027.2,000.0,036.9,030.2,11.7,0000.0,0003.93,0014.11,0002.47
2023-10-22 03:37:00,SystemResetWarning,0827.4,5.01,000.00,028.5,027.3,000.0,036.9,030.2,11.6,0000.0,0004.00,0014.74,0002.48
2023-10-22 03:38:00,SystemResetWarning,0827.3,5.00,000.00,028.5,027.4,000.0,036.9,030.2,11.6,0000.0,0004.02,0015.00,0002.50
2023-10-22 03:39:00,SystemResetWarning,0827.4,5.00,000.00,028.6,027.4,000.0,036.9,030.3,11.6,0000.0,0004.02,0015.44,0002.49
2023-10-22 03:40:00,SystemResetWarning,0827.3,5.00,000.00,028.6,027.5,000.0,036.9,030.3,11.6,0000.0,0003.99,0015.41,0002.49
2023-10-22 03:41:00,SystemResetWarning,0827.3,5.00,000.00,028.6,027.6,000.0,036.9,030.4,11.7,0000.0,0004.02,0015.90,0002.49
2023-10-22 03:42:00,SystemResetWarning,0827.3,5.00,000.00,028.6,027.6,000.0,037.0,030.4,11.6,0000.0,0004.07,0017.15,0002.50
2023-10-22 03:43:00,SystemResetWarning,0827.3,5.00,000.00,028.7,027.7,000.0,037.0,030.4,11.5,0000.0,0004.06,0017.07,0002.48
2023-10-22 03:44:00,SystemResetWarning,0827.4,4.99,000.00,028.7,027.4,000.0,037.0,030.5,11.4,0000.0,0004.02,0016.35,0002.48
2023-10-22 03:45:00,SystemResetWarning,0827.4,4.99,000.00,028.7,025.6,000.0,037.0,030.3,11.6,0000.0,0004.00,0016.87,0002.49
2023-10-22 03:46:00,SystemResetWarning,0827.4,5.00,000.00,028.6,024.6,000.0,036.9,030.2,11.8,0000.0,0004.04,0017.11,0002.51
2023-10-22 03:47:00,SystemResetWarning,0827.5,5.01,000.00,028.5,024.6,000.0,036.9,030.0,11.7,0000.0,0004.04,0017.12,0002.50
2023-10-22 03:48:00,SystemResetWarning,0827.7,5.01,000.00,028.4,024.9,000.0,036.9,029.9,11.8,0000.0,0003.97,0016.94,0002.49
2023-10-22 03:49:00,SystemResetWarning,0827.6,5.00,000.00,028.4,025.3,000.0,036.9,029.9,11.8,0000.0,0003.94,0017.91,0002.48
2023-10-22 03:50:00,SystemResetWarning,0827.6,4.99,000.00,028.4,025.7,000.0,036.9,029.9,11.8,0000.0,0003.95,0017.87,0002.49
2023-10-22 03:51:00,SystemResetWarning,0827.7,4.99,000.00,028.4,026.0,000.0,036.9,030.0,11.7,0000.0,0003.95,0017.75,0002.50
2023-10-22 03:52:00,SystemResetWarning,0827.7,5.00,000.00,028.4,026.2,000.0,036.9,030.0,11.7,0000.0,0003.91,0017.15,0002.50
2023-10-22 03:53:00,SystemResetWarning,0827.7,5.00,000.00,028.4,026.5,000.0,036.9,030.1,11.6,0000.0,0003.92,0016.77,0002.51
2023-10-22 03:54:00,SystemResetWarning,0827.7,5.01,000.00,028.4,026.7,000.0,036.9,030.1,11.6,0000.0,0003.94,0016.07,0002.52
2023-10-22 03:55:00,SystemResetWarning,0827.6,5.00,000.00,028.4,026.8,000.0,036.9,030.1,11.6,0000.0,0004.01,0016.94,0002.54
2023-10-22 03:56:00,SystemResetWarning,0827.6,5.00,000.00,028.4,027.0,000.0,036.9,030.2,11.7,0000.0,0004.05,0017.32,0002.52
2023-10-22 03:57:00,SystemResetWarning,0827.6,5.00,000.00,028.5,027.1,000.0,036.9,030.2,11.6,0000.0,0004.02,0016.71,0002.50
2023-10-22 03:58:00,SystemResetWarning,0827.6,5.00,000.00,028.5,027.2,000.0,036.9,030.2,11.6,0000.0,0004.04,0017.15,0002.52
2023-10-22 03:59:00,SystemResetWarning,0827.6,5.00,000.00,028.5,027.3,000.0,036.9,030.3,11.6,0000.0,0004.09,0017.46,0002.54
